EST,Max TemperatureF,Mean TemperatureF,Min TemperatureF,Max Dew PointF,MeanDew PointF,Min DewpointF,Max Humidity, Mean Humidity, Min Humidity, Max Sea Level PressureIn, Mean Sea Level PressureIn, Min Sea Level PressureIn, Max VisibilityMiles, Mean VisibilityMiles, Min VisibilityMiles, Max Wind SpeedMPH, Mean Wind SpeedMPH, Max Gust SpeedMPH,PrecipitationIn, CloudCover, Events, WindDirDegrees
2013-12-1,42,34,26,33,27,22,85,72,59,30.11,30.06,30.02,10,9,6,13,4,16,0.00,2,,321
2013-12-2,41,34,26,31,27,22,85,72,59,30.01,29.91,29.83,10,8,4,17,7,20,0.02,6,Rain,109
2013-12-3,49,42,34,45,38,30,92,86,80,29.84,29.79,29.74,6,4,2,18,11,21,0.09,8,Rain,141
2013-12-4,59,52,45,54,48,43,93,88,83,29.81,29.70,29.60,8,4,0,20,11,26,0.01,8,Fog-Rain,158
2013-12-5,57,43,28,50,26,17,86,75,63,30.23,29.96,29.65,10,10,7,25,14,32,0.00,5,,270
2013-12-6,28,26,23,19,16,12,75,68,60,30.47,30.33,30.22,10,10,10,15,10,18,T,8,Snow,325
2013-12-7,23,19,14,14,11,8,80,69,57,30.66,30.60,30.46,10,8,2,14,7,18,T,7,Snow,314
2013-12-8,26,19,12,23,16,8,88,73,57,30.60,30.23,29.95,10,5,1,18,9,23,0.03,7,Snow,116
2013-12-9,27,20,13,23,16,4,84,73,61,30.21,30.07,29.92,10,7,2,23,14,30,T,6,Snow,241
2013-12-10,24,13,1,9,3,-6,75,64,53,30.31,30.16,30.02,10,10,10,29,13,35,T,5,Snow,234
2013-12-11,24,19,13,18,11,3,84,72,59,30.52,30.37,30.26,10,4,0,21,11,25,0.18,8,Snow,288
2013-12-12,19,8,-3,8,0,-10,79,65,51,30.55,30.42,30.28,10,10,8,23,11,28,T,3,Snow,227
2013-12-13,31,22,12,23,13,6,80,67,53,30.27,30.21,30.14,10,9,1,12,6,16,T,3,Snow,140
2013-12-14,27,24,21,23,20,16,88,83,77,30.17,30.01,29.85,10,3,0,16,9,22,0.42,8,Snow,68
2013-12-15,27,18,9,21,12,2,84,76,67,30.12,29.97,29.89,10,6,1,22,12,25,0.01,8,Snow,245
2013-12-16,20,13,6,16,10,2,91,77,62,30.19,30.09,30.00,10,7,1,13,5,15,0.08,7,Snow,170
2013-12-17,28,23,17,23,18,14,92,83,74,30.08,30.01,29.93,10,5,0,22,11,26,0.03,8,Fog-Snow,229
2013-12-18,35,25,14,22,13,10,80,63,46,30.22,30.09,29.90,10,10,10,21,11,29,0.00,3,,211
2013-12-19,42,39,35,36,33,25,92,74,56,29.97,29.91,29.84,10,8,0,20,9,25,0.02,4,Fog,177
2013-12-20,43,39,35,41,38,33,100,95,89,29.82,29.76,29.70,4,1,0,12,4,15,0.35,8,Fog-Rain,237
2013-12-21,37,36,34,34,33,30,100,93,85,29.85,29.78,29.61,10,3,0,14,6,20,0.57,8,Fog-Rain,3
2013-12-22,35,33,30,32,30,25,96,87,78,30.06,29.74,29.55,10,6,2,18,9,23,0.16,8,Rain,278
2013-12-23,30,19,7,24,17,0,85,73,61,30.44,30.28,30.09,10,8,2,20,13,24,T,7,Snow,257
2013-12-24,18,11,3,10,2,-4,83,72,61,30.58,30.51,30.41,10,8,1,18,10,21,T,5,Snow,212
2013-12-25,27,22,17,25,17,10,92,77,62,30.46,30.24,30.09,10,7,0,20,12,23,0.09,8,Fog-Rain-Snow,201
2013-12-26,33,26,19,25,19,12,92,76,60,30.32,30.20,30.06,10,8,1,22,11,26,0.01,8,Snow,234
2013-12-27,41,34,27,30,27,24,85,72,59,30.33,30.24,30.14,10,10,8,22,11,30,0.00,4,,216
2013-12-28,50,42,34,33,30,28,82,67,52,30.14,30.06,29.90,10,10,10,20,12,26,0.00,0,,214
2013-12-29,41,32,22,31,25,16,88,74,59,30.11,29.91,29.78,10,7,1,25,14,33,0.01,6,Snow,303
2013-12-30,22,18,13,14,10,6,80,71,62,30.31,30.20,30.11,10,7,2,17,8,23,0.03,7,Snow,267
2013-12-31,15,13,10,11,7,3,88,78,67,30.37,30.25,30.13,10,4,1,16,9,21,0.18,8,Snow,243